This is the latest recevied weather packets stored in our database for station/object KO4DYK. If no packets are shown the sender has not sent any weather packets the latest 1 day(s).
| Time | Temp. | Humidity | Pressure | Rain* | Wind** | Luminosity | Snow |
|---|---|---|---|---|---|---|---|
| 1777986185 | 16.67° C | 83% | 1015.6 hPa | 0 mm | 0.45 m/s, 190° | 60 W/m² | - |
| 1777985874 | 16.67° C | 83% | 1015.6 hPa | 0 mm | 0.89 m/s, 194° | 55 W/m² | - |
| 1777985572 | 16.67° C | 83% | 1015.4 hPa | 0 mm | 0.89 m/s, 177° | 44 W/m² | - |
| 1777985268 | 16.67° C | 83% | 1015.4 hPa | 0 mm | 1.34 m/s, 190° | 38 W/m² | - |
| 1777984965 | 16.11° C | 83% | 1015.2 hPa | 0 mm | 1.34 m/s, 181° | 36 W/m² | - |
| 1777984660 | 16.11° C | 83% | 1015.4 hPa | 0 mm | 1.34 m/s, 168° | 30 W/m² | - |
| 1777984357 | 16.11° C | 83% | 1015.3 hPa | 0 mm | 1.34 m/s, 205° | 24 W/m² | - |
| 1777984054 | 16.11° C | 84% | 1015.5 hPa | 0 mm | 0.89 m/s, 193° | 19 W/m² | - |
| 1777983751 | 16.11° C | 84% | 1015.3 hPa | 0 mm | 0.89 m/s, 196° | 18 W/m² | - |
| 1777983448 | 15.56° C | 84% | 1015.1 hPa | 0 mm | 1.34 m/s, 199° | 19 W/m² | - |
| 1777983145 | 15.56° C | 84% | 1015.2 hPa | 0 mm | 0.89 m/s, 175° | 21 W/m² | - |
| 1777982841 | 15.56° C | 84% | 1015.1 hPa | 0 mm | 0 m/s | 23 W/m² | - |
| 1777982537 | 15.56° C | 84% | 1015.3 hPa | 0 mm | 1.34 m/s, 162° | 22 W/m² | - |
| 1777982235 | 15.56° C | 84% | 1014.9 hPa | 0 mm | 0.45 m/s, 169° | 21 W/m² | - |
| 1777981934 | 15.56° C | 84% | 1014.8 hPa | 0 mm | 0.45 m/s, 164° | 22 W/m² | - |
| 1777981631 | 15.56° C | 84% | 1014.8 hPa | 0 mm | 0.45 m/s, 167° | 21 W/m² | - |
| 1777981327 | 15.56° C | 83% | 1014.4 hPa | 0 mm | 1.34 m/s, 189° | 19 W/m² | - |
| 1777981023 | 15.56° C | 84% | 1014.3 hPa | 0 mm | 1.34 m/s, 190° | 15 W/m² | - |
| 1777980720 | 15.56° C | 84% | 1014.3 hPa | 0 mm | 0.89 m/s, 173° | 11 W/m² | - |
| 1777980416 | 15.56° C | 84% | 1014.3 hPa | 0 mm | 0 m/s | 6 W/m² | - |
| 1777980114 | 15.56° C | 84% | 1014.2 hPa | 0 mm | 0.45 m/s, 182° | 3 W/m² | - |
| 1777979813 | 15° C | 85% | 1014.4 hPa | 0 mm | 0 m/s | 3 W/m² | - |
| 1777979509 | 15° C | 85% | 1014.6 hPa | 0 mm | 0.45 m/s, 171° | 1 W/m² | - |
| 1777979206 | 15° C | 86% | 1014.5 hPa | 0 mm | 0.45 m/s, 193° | 0 W/m² | - |
| 1777978903 | 15° C | 86% | 1014.2 hPa | 0 mm | 0.45 m/s, 175° | 0 W/m² | - |
* Rain latest hour (hover to see other rain measurements)
** Current wind speed in m/s (hover to see current wind gust speed)